This is the latest recevied weather packets stored in our database for station/object N5COP-13. If no packets are shown the sender has not sent any weather packets the latest 10 day(s).
| Time | Temp. | Humidity | Pressure | Rain* | Wind** | Luminosity | Snow |
|---|---|---|---|---|---|---|---|
| 1778193195 | 23.89° C | 24% | 1014.3 hPa | 0 mm | - | 453 W/m² | - |
| 1778192893 | 23.89° C | 25% | 1014.3 hPa | 0 mm | - | 468 W/m² | - |
| 1778192589 | 23.33° C | 25% | 1014.2 hPa | 0 mm | - | 477 W/m² | - |
| 1778192286 | 23.89° C | 24% | 1014.3 hPa | 0 mm | - | 490 W/m² | - |
| 1778191982 | 23.89° C | 25% | 1014.4 hPa | 0 mm | - | 507 W/m² | - |
| 1778191678 | 23.89° C | 25% | 1014.2 hPa | 0 mm | - | 522 W/m² | - |
| 1778191377 | 23.89° C | 25% | 1014.4 hPa | 0 mm | - | 534 W/m² | - |
| 1778191073 | 23.33° C | 25% | 1014.4 hPa | 0 mm | - | 545 W/m² | - |
| 1778190770 | 23.33° C | 25% | 1014.7 hPa | 0 mm | - | 561 W/m² | - |
| 1778190467 | 23.33° C | 25% | 1014.7 hPa | 0 mm | - | 579 W/m² | - |
| 1778190164 | 22.78° C | 26% | 1014.9 hPa | 0 mm | - | 594 W/m² | - |
| 1778189859 | 23.33° C | 25% | 1015.2 hPa | 0 mm | - | 607 W/m² | - |
| 1778189557 | 22.78° C | 26% | 1015.1 hPa | 0 mm | - | 625 W/m² | - |
| 1778189253 | 22.78° C | 27% | 1015.4 hPa | 0 mm | - | 636 W/m² | - |
| 1778188950 | 22.78° C | 27% | 1015.3 hPa | 0 mm | - | 585 W/m² | - |
| 1778188647 | 22.22° C | 26% | 1015.4 hPa | 0 mm | - | 651 W/m² | - |
| 1778188342 | 22.22° C | 25% | 1015.4 hPa | 0 mm | - | 674 W/m² | - |
| 1778188040 | 22.22° C | 26% | 1015.5 hPa | 0 mm | - | 686 W/m² | - |
| 1778187737 | 22.22° C | 26% | 1015.8 hPa | 0 mm | - | 694 W/m² | - |
| 1778187433 | 22.22° C | 26% | 1015.6 hPa | 0 mm | - | 704 W/m² | - |
| 1778187130 | 22.22° C | 26% | 1016 hPa | 0 mm | - | 719 W/m² | - |
| 1778186826 | 22.22° C | 27% | 1016.1 hPa | 0 mm | - | 728 W/m² | - |
| 1778186524 | 22.22° C | 28% | 1016.1 hPa | 0 mm | - | 743 W/m² | - |
| 1778186222 | 22.22° C | 27% | 1016.3 hPa | 0 mm | - | 750 W/m² | - |
| 1778185919 | 22.22° C | 27% | 1016.3 hPa | 0 mm | - | 763 W/m² | - |
* Rain latest hour (hover to see other rain measurements)
** Current wind speed in m/s (hover to see current wind gust speed)